Theta_e
343 343 344 344 344 345 342 341 341 341 340 338 339 339 337 337 337 335 332 328 329 333 334 334 335 336 337 337 336 337 336 334 332 332 333 330 328 328 327 328 327 326 324 323 323 325 329 332 334 335 335 335 337 341 342 340 339 338 338 337 338 337
343 343 345 345 344 345 343 342 342 342 341 340 340 340 338 338 337 336 334 332 332 335 334 333 334 334 336 336 335 336 336 335 332 331 333 331 328 328 328 327 327 325 324 322 324 329 331 331 333 334 335 336 338 341 341 341 339 338 338 337 338 337
343 344 344 345 344 345 344 343 343 343 342 341 341 341 339 338 337 335 335 335 335 335 335 334 333 334 336 337 336 335 336 335 333 331 331 330 328 329 328 327 327 325 322 321 327 334 334 334 334 333 335 336 339 341 341 340 338 337 338 337 337 336
342 344 344 344 344 345 345 343 344 344 343 342 342 341 339 336 336 336 335 335 334 334 334 334 333 334 336 337 336 335 335 335 334 332 330 330 330 329 328 328 326 323 323 325 330 334 334 337 337 335 337 337 339 341 341 340 338 337 337 337 336 335
342 343 343 343 343 344 344 344 343 344 343 343 342 341 338 335 335 336 336 335 334 334 334 334 333 334 334 335 335 334 335 335 335 333 329 332 334 330 329 330 328 326 328 330 332 332 332 336 337 336 337 337 339 341 340 339 338 337 337 337 336 335
342 343 343 342 342 342 344 344 343 344 344 343 342 340 337 335 335 335 336 335 334 335 335 335 334 334 334 334 334 334 334 333 335 334 331 334 336 332 331 332 332 331 332 332 332 333 334 336 336 336 336 338 339 340 339 338 338 337 337 336 335 334
342 342 342 342 342 341 342 344 343 343 343 343 342 339 336 336 336 335 336 335 335 335 335 336 335 335 335 334 335 335 334 334 334 334 333 335 335 333 332 332 334 334 332 332 332 334 335 336 336 335 336 338 339 340 339 338 337 337 336 335 333 333
341 342 342 342 341 341 341 343 343 342 342 342 341 338 336 336 336 336 336 336 336 336 336 336 336 336 336 335 336 335 335 334 334 335 334 335 333 332 333 333 334 334 332 331 332 334 335 336 336 336 337 338 339 339 338 337 337 336 335 334 332 331
341 341 341 342 341 341 341 342 342 342 341 342 340 337 335 336 336 335 335 335 335 336 336 336 337 337 336 336 336 335 336 335 335 335 333 334 334 334 334 334 334 333 332 331 333 334 335 335 336 337 338 339 339 338 337 337 336 335 334 333 331 329
340 340 341 341 341 340 341 342 342 341 341 341 339 336 335 336 334 332 333 334 334 335 336 336 337 337 336 336 336 335 336 336 336 335 333 334 336 335 334 334 334 332 332 332 332 335 336 335 337 338 339 339 338 337 337 336 335 334 332 331 330 326
339 339 340 341 340 340 341 341 341 341 341 340 338 336 336 335 333 332 332 333 333 332 334 336 336 336 336 336 335 335 335 334 334 332 332 335 335 335 335 335 334 333 332 332 332 335 337 337 338 339 338 338 337 337 336 334 332 332 331 329 328 326
339 339 340 340 340 340 340 340 340 341 341 340 338 336 336 334 332 334 334 332 332 330 332 335 335 335 335 335 334 334 334 333 333 331 332 335 335 335 337 336 336 336 335 334 335 337 338 339 339 338 337 337 337 336 334 331 329 329 330 329 327 327
339 339 340 340 339 340 340 340 340 340 340 340 338 336 336 333 332 336 335 333 334 333 334 335 335 336 336 336 335 334 334 333 333 332 333 336 337 337 337 337 338 338 338 338 339 340 339 339 339 338 337 337 336 334 331 328 326 328 329 329 327 326
339 339 340 339 339 339 339 339 339 340 340 340 338 336 336 332 332 338 337 336 337 336 337 337 337 339 339 339 338 337 337 337 337 336 336 337 338 338 337 338 339 340 340 340 340 340 339 339 338 338 337 336 334 331 329 328 327 328 328 327 326 324
340 340 340 339 339 339 339 339 339 339 340 340 337 337 336 332 333 339 338 338 339 338 339 340 340 341 340 340 340 339 340 340 340 339 339 339 339 340 339 340 340 340 340 339 339 339 338 338 338 337 337 335 332 330 328 328 327 327 327 325 323 321
340 340 340 339 339 339 339 339 339 339 339 339 337 337 336 331 332 338 339 338 339 339 340 340 340 341 341 341 340 340 340 341 341 340 340 339 340 340 341 341 340 340 339 339 338 338 338 338 337 337 336 334 331 328 327 327 326 326 325 322 320 319
341 340 340 339 340 339 339 338 338 339 339 339 337 338 337 330 330 336 338 338 339 340 340 339 340 340 341 341 341 341 340 341 340 339 339 340 340 340 341 341 340 339 339 339 338 337 338 337 337 336 334 332 330 327 327 327 327 326 324 320 318 318
342 341 340 340 340 339 339 338 338 339 339 339 337 339 338 330 327 333 338 339 339 340 340 339 339 340 340 340 341 340 340 340 340 339 340 340 340 340 340 340 339 337 338 338 337 337 337 337 336 335 333 330 328 327 327 326 326 325 322 318 317 317
342 341 340 339 339 339 339 338 338 338 339 339 338 339 339 332 326 331 337 339 339 339 340 339 339 340 340 340 341 340 340 339 339 339 340 339 340 340 339 339 338 337 337 337 338 337 337 336 335 333 331 329 327 326 326 326 325 324 320 317 316 316
342 342 341 340 339 339 338 338 338 339 339 339 339 338 340 335 329 331 336 339 339 340 340 339 339 340 340 340 340 340 339 339 339 340 339 339 340 339 338 338 337 337 336 336 337 337 336 335 333 330 327 326 325 325 325 325 324 322 320 317 316 316
343 342 341 341 340 338 338 338 338 338 339 339 339 338 339 338 333 332 336 338 339 340 340 339 339 340 340 340 340 340 340 339 339 339 339 339 339 339 337 337 336 336 335 335 335 336 335 333 332 329 327 325 324 323 324 324 323 321 319 318 317 316
343 342 342 341 340 339 338 338 338 339 339 339 339 338 338 339 337 334 334 337 339 340 340 340 339 339 340 340 340 340 340 340 339 338 339 340 339 338 337 336 336 336 335 335 335 335 333 333 332 331 330 328 326 324 324 324 323 321 319 318 317 317
344 343 343 342 341 340 339 339 339 339 339 339 339 338 338 340 339 335 334 335 338 340 340 340 339 339 340 340 340 340 340 340 339 338 339 340 339 338 337 336 336 335 335 334 334 334 333 333 332 332 331 330 329 328 326 324 323 321 320 318 317 316
345 344 343 342 341 341 340 340 340 340 340 340 339 339 340 341 340 337 336 336 338 340 340 339 339 339 339 340 340 340 340 340 339 338 339 340 340 338 337 336 336 335 335 334 334 334 333 333 332 331 331 330 329 328 327 325 323 321 320 318 317 316
346 346 345 343 342 342 341 341 341 341 341 341 340 340 341 342 341 339 337 337 338 339 340 340 339 339 339 339 340 340 340 340 338 338 338 340 340 338 337 337 335 335 334 334 334 334 333 333 332 331 331 330 329 328 328 326 324 322 319 318 317 316
346 346 346 344 343 342 342 341 341 341 341 342 341 341 341 342 342 339 337 338 339 340 340 340 340 339 339 339 340 340 340 340 339 338 338 339 340 339 338 337 336 335 334 333 334 333 333 332 331 330 330 331 331 331 330 326 325 324 320 318 317 316
345 347 347 345 344 343 343 342 341 341 341 341 341 341 341 342 343 340 338 339 340 341 340 340 340 339 339 339 339 339 340 340 339 339 338 338 339 339 338 337 336 335 334 333 333 333 333 332 331 330 330 330 330 330 329 327 327 326 323 320 318 317
346 347 346 346 345 344 343 342 342 342 341 342 342 342 341 342 342 341 340 340 341 341 340 339 339 339 339 339 339 339 340 340 339 339 339 339 339 339 338 337 336 335 334 333 333 333 332 332 331 330 329 329 329 328 328 328 329 328 326 324 320 318
346 346 346 346 346 345 344 344 343 343 342 342 342 342 342 342 342 342 341 341 341 340 340 339 339 339 339 339 339 339 340 340 339 339 339 338 338 338 337 337 335 334 334 334 333 332 332 331 331 330 329 328 328 328 328 328 328 328 328 328 324 320
345 346 346 346 346 346 345 345 344 343 343 342 342 342 342 342 343 342 342 342 341 340 339 339 339 339 339 339 339 339 340 339 339 339 338 337 338 337 336 335 335 334 334 334 333 332 332 332 331 331 331 330 329 329 328 328 328 327 328 328 326 323
345 345 346 346 346 346 346 345 345 344 344 344 343 342 343 344 343 342 342 342 341 340 339 338 339 339 339 339 339 339 340 340 339 339 338 337 337 337 335 334 334 334 333 333 333 332 332 332 331 331 331 331 330 329 329 328 328 328 327 328 327 325
345 345 346 346 346 346 346 346 345 345 345 344 344 343 344 344 343 342 343 342 342 341 339 338 339 339 339 339 339 339 339 339 339 339 338 337 336 336 335 334 334 334 333 333 333 333 332 333 332 331 331 330 330 329 329 328 328 328 328 327 327 326
345 345 345 346 346 346 346 346 346 346 346 345 344 344 343 344 343 343 342 343 342 341 339 339 339 339 339 340 339 339 339 339 339 338 338 337 336 335 335 335 334 333 333 333 333 332 332 332 332 331 331 330 330 329 329 328 328 328 328 327 327 325
345 346 345 346 346 346 347 346 346 346 346 345 344 344 343 342 343 342 342 343 342 341 339 339 339 339 339 339 339 339 339 339 339 338 337 336 335 335 334 334 333 333 332 331 331 331 331 331 331 331 331 330 330 330 329 328 328 328 327 327 326 324
346 346 346 346 346 346 346 346 346 347 346 346 345 344 343 342 342 342 342 342 342 341 340 340 340 339 339 339 339 339 339 340 339 337 337 336 335 334 334 333 332 332 331 330 329 329 329 329 330 330 330 330 330 329 329 328 328 328 327 326 324 323
347 346 346 346 346 346 346 346 346 346 346 346 345 345 344 342 342 342 342 342 342 340 340 340 339 339 339 339 338 339 340 339 338 337 336 335 335 334 333 332 331 330 330 329 328 328 328 328 328 329 328 328 328 327 327 327 326 326 325 324 323 322
347 347 347 347 346 346 346 346 346 346 346 347 346 346 345 343 342 343 342 341 341 340 340 340 340 339 339 339 338 339 339 338 337 337 336 335 335 333 332 330 329 329 328 327 326 327 327 327 327 327 327 327 326 326 326 325 325 324 323 322 321 320
Wind_Speed
20 20 20 19 18 17 18 18 17 17 17 16 15 14 13 12 12 10 9 12 15 15 14 13 13 12 12 11 11 13 11 10 11 11 10 11 12 11 11 10 9 9 9 9 8 8 8 9 9 9 8 7 5 4 4 5 5 5 5 6 6 7
19 21 20 19 19 17 17 18 17 16 16 16 16 14 12 12 11 11 11 11 12 14 14 13 14 13 12 11 13 14 12 10 11 11 11 11 12 11 11 10 9 9 9 9 9 8 8 8 8 9 9 6 4 4 5 5 5 5 6 7 7 8
19 21 20 18 18 18 17 18 18 16 15 15 15 14 13 13 12 12 13 12 12 12 13 13 14 13 12 13 14 15 13 11 11 11 12 12 12 11 11 10 9 8 8 9 8 7 8 8 8 9 7 4 3 5 6 5 5 6 7 7 8 8
19 20 21 18 17 18 17 18 19 17 15 16 16 15 14 14 13 13 13 13 12 12 13 12 14 13 12 13 12 14 14 11 10 11 13 12 11 11 10 9 8 8 8 8 8 7 7 8 8 7 5 3 4 6 6 5 5 7 7 7 8 8
20 20 20 19 17 18 18 18 18 18 16 17 17 16 15 14 13 14 13 13 13 13 13 12 15 14 13 13 11 13 13 11 9 10 13 12 10 10 10 8 8 8 8 8 8 7 6 7 7 6 4 3 5 6 5 4 5 6 7 7 8 8
20 21 21 19 18 17 18 17 17 18 17 17 17 16 15 14 14 15 14 13 13 13 13 12 14 14 13 13 12 13 13 12 11 10 12 11 10 10 10 9 9 8 8 8 7 7 7 6 6 5 4 4 5 6 5 5 5 6 7 8 8 6
21 21 21 19 18 17 18 17 17 17 17 16 17 16 15 14 14 15 14 13 14 13 13 13 13 14 13 13 12 12 12 12 11 11 11 11 10 10 9 9 8 8 8 7 7 7 7 7 6 5 4 5 6 6 6 5 6 6 7 8 8 6
21 21 21 20 18 17 17 17 17 17 17 16 17 16 14 14 14 14 14 14 14 13 13 13 13 13 13 12 12 11 11 11 11 10 11 10 10 10 9 8 8 7 7 7 7 7 7 7 6 5 5 6 6 6 6 6 6 7 8 9 8 6
21 21 21 20 19 18 17 17 17 17 17 16 16 16 14 13 13 14 15 14 14 13 13 13 13 13 12 12 11 11 11 11 10 10 10 10 9 9 9 8 8 8 8 7 7 7 7 7 6 5 6 6 6 6 7 7 7 8 8 9 9 7
22 21 21 20 20 18 18 18 18 18 17 16 17 16 14 13 13 13 15 15 14 14 13 13 13 13 12 12 11 11 10 10 10 9 10 9 8 8 8 8 8 8 8 7 7 8 7 7 6 6 6 7 7 7 7 7 7 7 8 8 9 9
22 21 21 21 20 19 18 18 18 18 17 16 17 16 13 12 12 13 14 15 15 15 14 13 13 13 12 12 11 11 10 10 10 10 10 9 8 8 7 8 7 7 7 7 7 7 7 6 6 6 6 7 7 7 7 7 7 7 7 8 8 9
21 21 22 21 20 19 19 18 18 18 17 17 17 15 12 12 13 13 14 16 15 15 14 13 13 13 12 11 11 11 10 10 10 10 10 8 8 8 7 7 7 7 7 7 7 7 7 6 6 6 6 7 7 7 8 8 9 7 6 7 6 6
21 22 22 21 20 20 19 18 18 18 17 17 17 15 12 12 13 13 15 16 15 15 14 13 14 13 11 11 11 11 10 10 10 10 10 9 9 8 7 8 8 7 7 7 7 7 7 6 6 6 7 7 7 8 8 9 9 7 5 5 5 5
23 24 23 22 21 20 19 18 18 18 17 17 16 14 11 12 14 14 15 16 14 14 13 13 13 12 12 11 11 11 10 10 11 11 10 10 10 9 9 9 8 8 8 8 8 8 8 7 7 7 7 7 7 8 8 9 8 6 5 5 5 5
24 25 24 23 22 20 19 18 18 18 17 17 16 14 12 13 15 14 16 15 15 15 14 13 13 13 13 12 12 12 11 11 10 11 10 10 10 9 9 9 9 8 8 8 8 8 8 7 8 8 8 8 8 8 7 8 7 6 5 5 5 5
23 26 25 24 23 20 19 18 17 17 17 17 17 14 12 14 16 15 16 16 16 16 15 15 14 13 13 13 13 12 12 11 9 9 10 10 10 9 9 8 9 9 9 8 8 9 8 8 8 9 8 8 8 9 7 7 7 5 5 5 5 4
22 25 25 24 23 21 20 19 17 17 18 18 17 15 13 15 17 16 16 16 17 17 16 16 14 13 13 13 12 11 11 10 9 9 9 10 10 9 9 9 9 9 9 8 9 9 8 8 9 9 9 8 9 9 8 7 6 4 4 4 4 4
22 24 25 24 23 22 20 18 17 17 18 19 18 16 14 15 17 17 16 16 17 18 17 16 15 14 14 13 11 11 10 9 10 10 9 10 10 9 9 9 9 9 9 8 9 9 9 9 10 9 9 8 8 8 8 7 6 4 4 4 4 4
22 23 24 24 23 22 20 19 18 17 18 19 18 16 15 16 17 18 17 16 17 18 17 16 15 15 14 12 11 11 10 10 10 10 10 10 10 10 10 10 9 9 9 8 8 9 9 10 10 9 9 8 7 7 7 6 5 5 4 5 5 5
22 23 24 24 24 22 21 20 19 18 19 19 19 18 16 16 17 18 17 17 18 18 17 16 15 15 14 13 12 11 10 10 10 11 11 11 10 10 11 11 10 10 10 9 8 9 10 11 11 9 9 7 7 7 7 6 5 5 5 5 5 5
23 24 24 24 23 23 22 21 21 20 20 20 20 18 18 17 17 18 18 17 18 18 16 16 15 15 15 13 12 12 11 10 11 11 11 11 11 10 11 12 11 11 11 10 9 10 11 12 11 10 8 6 6 7 7 6 5 6 6 6 5 5
25 25 25 24 23 23 22 20 20 20 19 20 20 19 19 18 17 17 19 18 17 17 16 16 16 15 15 14 13 12 11 11 11 11 11 11 11 11 12 12 11 11 11 10 10 11 13 13 11 10 9 7 6 7 7 7 7 7 7 7 6 6
26 26 26 25 23 23 22 20 18 18 18 18 19 19 17 17 18 17 19 19 18 17 18 17 16 15 15 15 14 13 12 11 12 11 11 11 12 12 13 13 13 12 11 11 10 12 15 13 9 9 10 7 5 6 6 9 10 10 10 8 7 7
27 27 27 26 24 22 22 21 18 17 17 17 18 18 16 16 18 18 19 20 19 18 18 17 16 16 15 15 15 13 12 11 12 12 12 12 13 14 14 13 14 13 12 11 10 11 14 13 10 9 8 4 4 5 5 8 12 11 11 10 9 8
27 27 27 27 25 23 22 22 20 18 18 18 18 19 18 18 19 20 20 20 20 19 19 18 17 17 16 16 16 14 12 12 13 13 13 13 13 14 14 14 15 14 13 12 11 11 12 12 12 10 8 4 3 4 4 6 10 9 10 11 10 10
28 27 26 28 28 25 24 24 23 22 22 22 22 22 21 20 21 21 20 20 20 19 20 19 18 18 17 16 16 15 14 13 14 14 14 14 13 14 14 15 15 14 14 13 12 11 12 12 12 11 11 8 5 4 2 5 5 4 9 11 11 11
29 26 26 28 30 27 25 26 25 24 24 24 24 23 22 21 21 21 20 20 20 19 20 20 19 19 18 17 16 15 15 14 14 14 14 14 13 14 14 14 15 14 14 14 13 12 12 12 12 12 12 11 9 7 5 4 4 3 5 8 10 12
27 25 26 28 30 29 27 28 27 25 23 23 23 21 21 21 21 21 20 21 20 21 22 22 21 19 19 18 16 16 16 16 15 14 14 14 14 14 14 14 15 15 14 14 14 13 12 12 12 12 12 12 11 10 10 10 10 9 5 4 8 11
25 24 26 28 29 29 28 28 28 26 23 22 21 21 20 21 21 22 22 22 22 22 23 23 22 20 19 19 17 16 16 16 15 15 15 14 14 15 15 15 15 16 15 14 14 14 12 12 12 12 11 12 12 11 12 12 12 11 9 7 4 7
27 25 25 27 29 28 27 27 27 26 25 23 22 22 21 21 23 23 23 24 23 23 23 23 22 21 20 20 18 17 17 17 16 16 15 15 14 15 16 17 16 16 16 15 14 14 13 13 13 12 11 12 12 12 12 11 11 11 11 10 6 6
28 27 25 27 29 28 29 29 26 26 27 25 24 23 22 23 24 24 24 24 24 23 24 24 23 22 21 20 19 19 18 17 17 17 16 15 15 15 16 17 16 16 16 15 14 13 14 14 13 13 13 14 13 12 12 11 11 11 10 10 7 7
29 28 26 28 30 30 32 30 27 27 28 27 26 25 24 24 24 25 25 24 24 23 23 24 24 23 22 21 21 20 19 18 17 17 17 16 15 15 15 15 15 14 14 13 13 13 13 14 14 14 14 15 14 13 14 14 12 11 11 10 9 8
30 30 29 30 31 32 34 32 30 29 28 28 27 26 25 25 26 26 26 25 25 25 25 25 26 25 23 21 21 21 21 19 17 17 17 16 15 15 14 13 13 13 12 13 13 14 14 14 14 15 14 14 14 14 15 15 14 13 11 11 11 11
30 30 31 31 31 33 34 33 32 30 29 28 28 27 26 27 27 27 27 26 26 27 27 26 25 26 24 22 23 22 20 19 18 17 17 17 16 15 14 13 12 12 13 13 14 14 16 14 14 15 14 14 14 14 15 14 14 13 12 12 12 11
31 32 33 32 33 34 34 34 34 32 30 28 28 28 28 28 27 27 28 26 26 28 28 24 23 24 24 24 24 22 20 20 19 18 18 18 16 15 15 13 12 12 12 13 13 14 15 14 14 14 15 15 14 14 14 14 14 14 13 14 13 12
32 33 34 35 35 35 35 34 34 34 32 28 27 28 29 29 27 27 28 26 27 29 27 23 23 24 24 25 25 23 20 21 20 19 19 18 17 16 15 14 13 12 12 11 12 13 13 13 14 15 15 16 15 14 14 15 15 14 14 14 12 11
30 31 33 35 35 36 35 34 34 35 34 31 29 28 29 29 28 28 29 27 27 29 26 23 23 24 25 26 26 24 22 21 20 19 19 18 17 16 15 14 13 12 12 11 11 12 12 12 13 13 14 15 14 14 13 14 13 13 12 12 11 11
Wind_Direction
175 176 174 174 177 178 184 183 179 179 175 177 180 177 173 172 169 166 164 170 175 173 174 180 180 180 183 182 176 176 182 183 179 170 170 174 169 167 164 160 159 156 153 155 153 154 155 157 158 157 158 150 124 104 97 97 88 79 77 76 80 93
177 177 175 174 176 177 180 181 180 180 177 179 181 178 175 174 173 169 165 165 165 168 173 179 179 181 184 185 185 182 178 184 189 182 177 178 176 173 171 168 166 163 160 159 153 154 160 160 159 155 152 135 106 109 108 102 95 89 85 82 89 98
180 176 176 174 176 177 176 180 180 179 178 181 181 180 179 178 179 174 170 169 167 170 172 175 178 179 178 176 183 185 179 185 193 192 186 183 181 179 178 175 174 171 165 162 160 164 167 161 161 157 150 131 109 117 110 109 102 94 92 94 104 107
182 177 178 175 177 177 174 180 181 179 180 181 181 183 185 185 185 179 174 174 174 174 171 173 176 176 173 171 179 185 184 184 190 199 192 185 186 187 184 181 181 176 171 177 183 185 176 165 167 167 165 150 123 120 117 120 110 103 105 107 111 110
184 180 181 178 179 179 175 180 183 182 181 182 183 184 187 188 188 182 177 177 178 175 172 172 175 176 176 177 181 185 188 186 189 199 190 184 192 193 188 187 187 184 187 194 195 193 185 175 175 179 178 155 129 125 126 122 114 108 109 114 116 115
186 183 184 182 181 182 180 181 185 185 183 185 184 184 188 189 188 184 179 178 178 175 173 172 173 178 178 180 182 181 186 188 189 192 187 188 193 191 191 193 191 192 198 198 194 191 188 184 183 185 176 152 135 131 132 128 122 112 110 118 124 124
187 186 185 185 183 183 185 185 186 188 186 186 186 187 190 190 188 184 182 180 178 176 175 173 173 176 176 178 179 177 179 183 186 187 187 191 191 189 191 194 194 194 198 197 192 187 186 187 186 188 175 153 142 139 139 135 130 120 114 112 117 128
188 187 186 186 185 184 187 190 187 189 191 187 187 190 193 192 188 184 184 182 180 178 176 175 173 174 175 175 175 173 173 176 182 185 185 189 189 188 190 192 193 193 199 198 190 184 185 187 186 185 169 154 148 148 144 140 135 126 121 109 103 122
189 188 188 186 188 187 188 192 190 191 194 190 190 194 196 193 188 185 186 183 181 179 177 176 174 173 173 172 172 170 170 172 177 179 181 185 185 186 188 190 192 195 201 200 189 184 187 189 186 177 162 156 154 154 149 144 141 129 122 111 105 126
191 190 190 188 189 190 189 193 193 193 195 193 193 196 198 195 187 185 185 183 182 180 177 176 174 172 170 170 170 170 170 171 173 174 177 183 184 183 187 191 194 198 201 202 194 187 190 192 182 167 158 160 159 156 153 148 142 131 122 113 111 126
192 191 191 190 190 192 192 194 194 194 196 196 196 197 199 195 187 184 184 181 182 181 177 174 173 170 168 168 169 170 170 168 171 173 176 181 183 185 191 194 195 199 201 201 196 190 192 188 174 167 166 165 161 157 155 144 133 128 122 117 115 118
191 192 192 192 192 193 194 195 195 195 196 197 197 199 200 195 186 183 181 179 179 179 176 173 172 169 167 167 168 169 169 170 171 174 179 181 183 187 196 198 197 200 200 199 195 188 186 182 176 178 177 170 165 160 152 142 138 135 126 120 119 117
192 193 193 193 193 194 195 195 196 197 197 197 198 201 202 194 186 182 179 176 175 175 173 171 170 168 165 165 166 168 170 172 172 174 179 181 185 191 196 200 199 196 196 194 188 179 179 184 182 180 179 173 167 161 150 146 149 145 133 125 124 126
194 194 193 193 193 194 196 195 196 197 197 196 197 202 203 193 186 181 177 174 174 174 174 172 171 170 169 169 169 171 175 177 177 179 182 186 190 194 199 201 196 192 190 189 185 181 183 184 178 173 173 173 165 161 154 149 149 141 133 128 127 129
193 194 194 194 193 194 195 195 196 197 197 194 195 202 202 192 186 182 178 178 180 181 180 178 178 177 177 176 177 180 183 184 184 184 187 192 195 199 203 200 195 189 185 188 187 184 186 180 172 169 168 168 163 161 156 147 145 140 132 131 133 131
191 193 194 194 194 194 194 196 197 197 197 194 194 201 201 192 188 185 183 185 187 185 184 184 183 183 184 184 185 185 185 184 185 187 192 195 197 201 201 197 194 188 183 186 187 185 183 173 167 166 165 166 166 162 154 148 146 140 133 132 133 131
191 192 193 194 194 194 194 196 197 198 199 196 196 201 200 193 189 188 188 189 190 188 187 188 187 189 191 190 190 187 183 183 183 189 194 194 198 199 195 192 190 189 185 182 185 185 173 162 162 162 163 168 167 160 155 152 150 144 143 142 139 137
191 191 192 193 194 194 195 195 197 199 200 199 199 202 201 194 191 191 192 190 190 191 190 191 190 195 197 194 192 186 181 184 186 191 195 196 199 198 193 188 185 188 186 181 186 185 168 157 159 158 162 171 164 155 156 156 155 156 158 155 151 148
191 192 192 192 193 194 195 195 197 199 200 202 202 203 202 197 193 193 195 192 192 192 192 193 193 197 199 195 193 188 183 186 189 192 196 198 199 195 193 188 184 185 183 181 184 181 168 155 154 158 164 165 156 151 157 162 165 170 172 166 159 156
193 192 189 190 191 193 196 196 197 198 200 202 202 203 203 200 196 195 195 193 193 194 193 195 195 197 198 194 194 191 186 189 191 194 197 200 199 194 194 191 187 185 182 178 173 171 165 154 148 151 156 154 153 160 168 174 179 181 181 178 172 166
193 193 189 189 190 193 197 196 196 198 198 200 201 202 204 203 200 197 196 194 195 196 194 195 196 198 198 195 195 193 189 192 196 200 201 202 201 196 194 191 186 186 186 182 172 167 162 156 152 151 152 146 157 180 190 193 194 196 195 190 188 183
190 194 193 191 192 197 199 196 196 197 197 199 200 202 204 205 203 199 196 196 196 197 197 196 195 200 201 197 196 196 194 196 201 204 206 206 202 196 194 189 184 186 190 190 182 171 166 168 169 167 165 159 170 198 210 216 217 208 206 205 199 193
188 192 195 195 196 198 198 196 193 194 197 199 201 203 205 204 204 200 195 195 196 197 201 200 196 200 205 202 199 198 197 200 204 206 208 205 200 197 196 191 189 189 188 189 186 178 178 187 192 175 170 179 190 200 210 214 218 216 210 211 207 200
187 190 193 193 195 196 195 193 189 191 196 200 202 202 203 204 204 201 194 194 197 198 202 203 201 202 206 206 203 200 198 201 205 208 210 205 200 200 197 192 194 194 189 189 187 184 190 202 204 183 182 201 186 202 234 201 195 206 207 210 212 206
187 189 189 186 189 192 192 191 186 187 193 198 203 202 202 203 203 202 196 194 197 199 202 205 205 203 205 208 206 201 200 201 205 207 210 208 203 203 200 195 196 197 196 196 192 188 193 204 210 207 213 227 183 220 267 168 170 192 199 209 214 207
188 190 188 182 184 188 193 194 189 188 191 196 202 202 202 202 200 201 199 195 197 202 205 206 206 204 205 209 207 204 203 204 205 206 209 208 204 203 202 198 197 200 203 205 201 195 196 200 210 220 225 240 255 279 299 146 160 182 185 206 213 205
190 191 187 183 182 184 192 197 194 191 193 198 201 202 203 203 202 203 200 195 196 203 207 206 207 206 207 209 208 207 207 207 207 207 208 207 204 203 202 199 199 202 205 207 206 204 204 199 204 219 223 234 250 263 268 229 244 253 179 200 208 204
190 189 187 185 185 186 190 196 197 195 196 199 200 202 203 205 207 206 202 199 199 203 206 206 207 207 208 209 207 209 210 209 209 209 207 206 205 203 201 199 201 205 207 208 208 210 211 201 205 217 216 225 237 243 250 248 257 269 262 230 200 196
193 193 189 187 189 191 192 192 193 194 196 198 199 202 202 204 207 204 201 200 200 203 204 204 206 207 209 208 207 210 212 210 210 209 207 206 204 203 202 200 203 207 209 212 212 215 218 211 215 221 212 218 230 233 239 243 250 257 262 266 218 187
195 197 192 188 190 194 196 195 192 192 195 196 197 200 201 203 204 202 201 199 199 201 203 202 203 208 210 208 208 211 211 211 211 209 207 206 203 202 204 204 207 210 212 216 218 220 226 224 223 225 220 222 226 228 234 238 241 243 247 253 252 223
197 197 194 193 195 198 202 203 198 194 194 193 192 195 199 201 200 201 200 198 198 200 201 201 202 207 211 209 209 211 211 211 211 209 208 206 202 201 204 206 210 214 216 222 224 224 230 233 232 229 226 226 227 228 232 234 235 235 237 239 249 251
200 198 197 198 199 203 208 207 204 199 195 192 191 191 196 200 198 198 199 197 198 198 199 202 202 207 211 209 210 212 212 211 210 210 208 205 203 201 203 207 211 216 220 226 231 231 232 232 234 233 228 228 230 232 234 237 239 234 235 239 243 254
203 199 200 202 201 206 210 208 206 205 199 193 192 190 194 200 201 200 199 199 198 197 201 203 203 207 210 208 210 212 211 209 208 209 207 205 204 201 202 206 212 219 224 228 230 231 231 229 228 229 230 230 232 235 235 236 241 239 236 240 242 251
206 202 202 203 203 208 210 208 208 207 202 195 193 193 197 201 203 203 203 201 199 200 204 204 205 208 209 208 210 211 211 208 206 206 206 204 202 200 203 208 215 221 225 228 228 226 227 226 225 227 228 230 231 234 236 235 238 239 234 235 241 248
203 201 202 204 206 210 210 209 209 208 205 199 194 194 197 202 203 202 204 203 199 202 205 205 208 209 208 207 208 210 209 206 204 204 204 202 199 200 204 208 216 221 222 224 222 220 221 221 222 223 224 228 231 233 235 234 233 234 233 235 240 242
201 200 201 203 208 211 210 209 209 209 208 203 195 193 194 199 201 200 203 203 199 203 206 207 210 210 207 207 207 207 206 205 205 203 202 200 198 200 203 206 212 215 212 211 211 212 215 218 220 222 223 226 229 232 233 232 230 231 233 235 237 235
202 203 202 203 207 211 210 210 210 210 209 206 200 195 191 193 195 196 201 203 200 204 208 207 208 208 206 206 207 204 202 203 203 201 200 200 200 201 201 201 204 206 203 202 204 206 210 215 218 219 221 223 225 230 230 227 226 226 227 229 230 230